Time,TemperatureF,DewpointF,PressureIn,WindDirection,WindDirectionDegrees,WindSpeedMPH,WindSpeedGustMPH,Humidity,HourlyPrecipIn,Conditions,Clouds,dailyrainin,SoftwareType,DateUTC
2013-05-06 00:02:00,69.0,55.0,29.91,WNW,298,0.0,0.0,62,0.00,,,0.00,,2013-05-06 04:02:00,
2013-05-06 00:12:00,69.0,55.0,29.91,WNW,298,0.0,0.0,62,0.00,,,0.00,,2013-05-06 04:12:00,
2013-05-06 00:23:00,68.0,55.0,29.91,WNW,298,0.0,0.0,63,0.00,,,0.00,,2013-05-06 04:23:00,
2013-05-06 00:32:00,68.0,57.0,29.92,WNW,298,0.0,0.0,67,0.00,,,0.00,,2013-05-06 04:32:00,
2013-05-06 00:43:00,68.0,57.0,29.92,WNW,298,0.0,0.0,67,0.00,,,0.00,,2013-05-06 04:43:00,
2013-05-06 00:53:00,67.0,57.0,29.92,West,260,2.0,3.0,71,0.00,,,0.00,,2013-05-06 04:53:00,
2013-05-06 01:02:00,67.0,57.0,29.92,NW,322,0.0,0.0,71,0.00,,,0.00,,2013-05-06 05:02:00,
2013-05-06 01:12:00,67.0,57.0,29.92,NW,322,0.0,0.0,71,0.00,,,0.00,,2013-05-06 05:12:00,
2013-05-06 01:22:00,67.0,58.0,29.92,West,267,0.0,0.0,73,0.00,,,0.00,,2013-05-06 05:22:00,
2013-05-06 01:32:00,66.0,57.0,29.91,NNW,346,0.0,0.0,74,0.00,,,0.00,,2013-05-06 05:32:00,
2013-05-06 01:42:00,66.0,57.0,29.91,NNW,346,0.0,0.0,74,0.00,,,0.00,,2013-05-06 05:42:00,
2013-05-06 01:52:00,66.0,58.0,29.91,NW,326,0.0,0.0,75,0.00,,,0.00,,2013-05-06 05:52:00,
2013-05-06 02:02:00,65.0,58.0,29.91,West,277,0.0,0.0,77,0.00,,,0.00,,2013-05-06 06:02:00,
2013-05-06 02:12:00,65.0,58.0,29.91,West,277,0.0,0.0,77,0.00,,,0.00,,2013-05-06 06:12:00,
2013-05-06 02:21:00,65.0,58.0,29.91,WNW,297,0.0,0.0,78,0.00,,,0.00,,2013-05-06 06:21:00,
2013-05-06 02:32:00,65.0,59.0,29.90,WNW,297,0.0,0.0,80,0.00,,,0.00,,2013-05-06 06:32:00,
2013-05-06 02:42:00,65.0,59.0,29.90,WNW,297,0.0,0.0,80,0.00,,,0.00,,2013-05-06 06:42:00,
2013-05-06 02:52:00,64.0,58.0,29.90,WNW,297,0.0,0.0,81,0.00,,,0.00,,2013-05-06 06:52:00,
2013-05-06 03:01:00,64.0,58.0,29.90,WNW,297,0.0,0.0,81,0.00,,,0.00,,2013-05-06 07:01:00,
2013-05-06 03:11:00,64.0,58.0,29.90,WNW,297,0.0,0.0,81,0.00,,,0.00,,2013-05-06 07:11:00,
2013-05-06 03:22:00,64.0,58.0,29.90,NW,305,0.0,0.0,82,0.00,,,0.00,,2013-05-06 07:22:00,
2013-05-06 03:32:00,63.0,58.0,29.90,WNW,284,0.0,0.0,83,0.00,,,0.00,,2013-05-06 07:32:00,
2013-05-06 03:42:00,63.0,58.0,29.90,WNW,284,0.0,0.0,83,0.00,,,0.00,,2013-05-06 07:42:00,
2013-05-06 03:52:00,63.0,58.0,29.90,WNW,284,0.0,0.0,85,0.00,,,0.00,,2013-05-06 07:52:00,
2013-05-06 04:02:00,63.0,59.0,29.90,WNW,284,0.0,0.0,86,0.00,,,0.00,,2013-05-06 08:02:00,
2013-05-06 04:12:00,63.0,59.0,29.90,WNW,284,0.0,0.0,86,0.00,,,0.00,,2013-05-06 08:12:00,
2013-05-06 04:22:00,63.0,59.0,29.90,WNW,284,0.0,0.0,87,0.00,,,0.00,,2013-05-06 08:22:00,
2013-05-06 04:32:00,62.0,58.0,29.91,WNW,284,0.0,0.0,88,0.00,,,0.00,,2013-05-06 08:32:00,
2013-05-06 04:42:00,62.0,58.0,29.91,WNW,284,0.0,0.0,88,0.00,,,0.00,,2013-05-06 08:42:00,
2013-05-06 04:52:00,62.0,59.0,29.91,WNW,284,0.0,0.0,89,0.00,,,0.00,,2013-05-06 08:52:00,
2013-05-06 05:01:00,62.0,59.0,29.92,WNW,284,0.0,0.0,90,0.00,,,0.00,,2013-05-06 09:01:00,
2013-05-06 05:11:00,62.0,59.0,29.92,WNW,284,0.0,0.0,90,0.00,,,0.00,,2013-05-06 09:11:00,
2013-05-06 05:22:00,62.0,59.0,29.92,West,264,0.0,0.0,91,0.00,,,0.00,,2013-05-06 09:22:00,
2013-05-06 05:33:00,62.0,59.0,29.93,West,264,0.0,0.0,90,0.00,,,0.00,,2013-05-06 09:33:00,
2013-05-06 05:43:00,62.0,59.0,29.93,West,264,0.0,0.0,90,0.00,,,0.00,,2013-05-06 09:43:00,
2013-05-06 05:53:00,62.0,59.0,29.93,West,264,0.0,0.0,91,0.00,,,0.00,,2013-05-06 09:53:00,
2013-05-06 06:02:00,61.0,59.0,29.93,West,264,0.0,0.0,92,0.00,,,0.00,,2013-05-06 10:02:00,
2013-05-06 06:12:00,61.0,59.0,29.93,West,264,0.0,0.0,92,0.00,,,0.00,,2013-05-06 10:12:00,
2013-05-06 06:22:00,61.0,59.0,29.93,West,264,0.0,0.0,93,0.00,,,0.00,,2013-05-06 10:22:00,
2013-05-06 06:33:00,61.0,59.0,29.94,West,264,0.0,0.0,94,0.00,,,0.00,,2013-05-06 10:33:00,
2013-05-06 06:42:00,61.0,59.0,29.94,West,264,0.0,0.0,94,0.00,,,0.00,,2013-05-06 10:42:00,
2013-05-06 06:52:00,61.0,59.0,29.94,West,264,0.0,0.0,94,0.00,,,0.00,,2013-05-06 10:52:00,
2013-05-06 07:02:00,61.0,59.0,29.95,West,264,0.0,0.0,94,0.00,,,0.00,,2013-05-06 11:02:00,
2013-05-06 07:12:00,61.0,59.0,29.95,West,264,0.0,0.0,94,0.00,,,0.00,,2013-05-06 11:12:00,
2013-05-06 07:22:00,61.0,60.0,29.96,WNW,301,0.0,0.0,95,0.00,,,0.00,,2013-05-06 11:22:00,
2013-05-06 07:32:00,61.0,60.0,29.96,NW,309,1.0,0.0,95,0.00,,,0.00,,2013-05-06 11:32:00,
2013-05-06 07:42:00,61.0,60.0,29.96,NW,309,1.0,0.0,95,0.00,,,0.00,,2013-05-06 11:42:00,
2013-05-06 07:52:00,62.0,60.0,29.97,WNW,284,0.0,0.0,94,0.00,,,0.00,,2013-05-06 11:52:00,
2013-05-06 08:01:00,64.0,61.0,29.97,NW,312,1.0,0.0,90,0.00,,,0.00,,2013-05-06 12:01:00,
2013-05-06 08:12:00,64.0,61.0,29.97,NW,312,1.0,0.0,90,0.00,,,0.00,,2013-05-06 12:12:00,
2013-05-06 08:21:00,65.0,61.0,29.98,WNW,302,2.0,4.0,86,0.00,,,0.00,,2013-05-06 12:21:00,
2013-05-06 08:32:00,67.0,62.0,29.98,WNW,302,2.0,2.0,83,0.00,,,0.00,,2013-05-06 12:32:00,
2013-05-06 08:42:00,67.0,62.0,29.98,WNW,302,2.0,2.0,83,0.00,,,0.00,,2013-05-06 12:42:00,
2013-05-06 08:52:00,68.0,61.0,29.98,WNW,294,3.0,3.0,78,0.00,,,0.00,,2013-05-06 12:52:00,
2013-05-06 09:01:00,69.0,61.0,29.98,WNW,302,3.0,6.0,77,0.00,,,0.00,,2013-05-06 13:01:00,
2013-05-06 09:11:00,69.0,61.0,29.98,WNW,302,3.0,6.0,77,0.00,,,0.00,,2013-05-06 13:11:00,
2013-05-06 09:21:00,71.0,62.0,29.99,West,270,5.0,7.0,72,0.00,,,0.00,,2013-05-06 13:21:00,
2013-05-06 09:32:00,71.0,61.0,29.99,WNW,284,6.0,6.0,70,0.00,,,0.00,,2013-05-06 13:32:00,
2013-05-06 09:42:00,71.0,61.0,29.99,WNW,284,6.0,6.0,70,0.00,,,0.00,,2013-05-06 13:42:00,
2013-05-06 09:52:00,73.0,61.0,29.99,NW,326,4.0,5.0,67,0.00,,,0.00,,2013-05-06 13:52:00,
2013-05-06 10:01:00,74.0,61.0,29.99,West,266,5.0,6.0,63,0.00,,,0.00,,2013-05-06 14:01:00,
2013-05-06 10:11:00,74.0,61.0,29.99,West,266,5.0,6.0,63,0.00,,,0.00,,2013-05-06 14:11:00,
2013-05-06 10:21:00,74.0,61.0,29.98,West,260,5.0,5.0,63,0.00,,,0.00,,2013-05-06 14:21:00,
2013-05-06 10:32:00,75.0,61.0,29.99,West,273,4.0,6.0,62,0.00,,,0.00,,2013-05-06 14:32:00,
2013-05-06 10:42:00,75.0,61.0,29.99,West,273,4.0,6.0,62,0.00,,,0.00,,2013-05-06 14:42:00,
2013-05-06 10:52:00,76.0,62.0,29.99,NW,304,2.0,5.0,61,0.00,,,0.00,,2013-05-06 14:52:00,
2013-05-06 11:01:00,77.0,62.0,29.99,WNW,293,3.0,4.0,59,0.00,,,0.00,,2013-05-06 15:01:00,
2013-05-06 11:11:00,77.0,62.0,29.99,WNW,293,3.0,4.0,59,0.00,,,0.00,,2013-05-06 15:11:00,
2013-05-06 11:21:00,78.0,62.0,29.98,WNW,287,3.0,3.0,57,0.00,,,0.00,,2013-05-06 15:21:00,
2013-05-06 11:33:00,78.0,61.0,29.98,WNW,287,5.0,5.0,56,0.00,,,0.00,,2013-05-06 15:33:00,
2013-05-06 11:42:00,78.0,61.0,29.98,WNW,287,5.0,5.0,56,0.00,,,0.00,,2013-05-06 15:42:00,
2013-05-06 11:53:00,78.0,61.0,29.98,West,280,4.0,4.0,56,0.00,,,0.00,,2013-05-06 15:53:00,
2013-05-06 12:03:00,79.0,60.0,29.98,West,274,3.0,5.0,53,0.00,,,0.00,,2013-05-06 16:03:00,
2013-05-06 12:13:00,79.0,60.0,29.98,West,274,3.0,5.0,53,0.00,,,0.00,,2013-05-06 16:13:00,
2013-05-06 12:23:00,80.0,59.0,29.98,West,281,4.0,4.0,48,0.00,,,0.00,,2013-05-06 16:23:00,
2013-05-06 12:33:00,81.0,59.0,29.97,WNW,288,5.0,5.0,48,0.00,,,0.00,,2013-05-06 16:33:00,
2013-05-06 12:42:00,81.0,59.0,29.97,WNW,288,5.0,5.0,48,0.00,,,0.00,,2013-05-06 16:42:00,
2013-05-06 12:52:00,81.0,61.0,29.97,WSW,246,5.0,0.0,50,0.00,,,0.00,,2013-05-06 16:52:00,
2013-05-06 13:03:00,81.0,58.0,29.97,WNW,291,5.0,5.0,46,0.00,,,0.00,,2013-05-06 17:03:00,
2013-05-06 13:12:00,81.0,58.0,29.97,WNW,291,5.0,5.0,46,0.00,,,0.00,,2013-05-06 17:12:00,
2013-05-06 13:23:00,81.0,58.0,29.97,West,276,5.0,7.0,46,0.00,,,0.00,,2013-05-06 17:23:00,
2013-05-06 13:31:00,82.0,59.0,29.97,West,280,6.0,6.0,46,0.00,,,0.00,,2013-05-06 17:31:00,
2013-05-06 13:42:00,82.0,59.0,29.97,West,280,6.0,6.0,46,0.00,,,0.00,,2013-05-06 17:42:00,
2013-05-06 13:52:00,82.0,59.0,29.96,West,267,8.0,8.0,45,0.00,,,0.00,,2013-05-06 17:52:00,
2013-05-06 14:01:00,81.0,60.0,29.96,NNW,338,2.0,4.0,49,0.00,,,0.00,,2013-05-06 18:01:00,
2013-05-06 14:12:00,81.0,60.0,29.96,NNW,338,2.0,4.0,49,0.00,,,0.00,,2013-05-06 18:12:00,
2013-05-06 14:22:00,83.0,60.0,29.95,NW,318,4.0,4.0,46,0.00,,,0.00,,2013-05-06 18:22:00,
2013-05-06 14:32:00,83.0,59.0,29.94,WNW,285,2.0,5.0,44,0.00,,,0.00,,2013-05-06 18:32:00,
2013-05-06 14:43:00,83.0,59.0,29.94,WNW,285,2.0,5.0,44,0.00,,,0.00,,2013-05-06 18:43:00,
2013-05-06 14:52:00,83.0,62.0,29.94,SSW,205,7.0,7.0,49,0.00,,,0.00,,2013-05-06 18:52:00,
2013-05-06 15:01:00,80.0,61.0,29.93,South,186,4.0,6.0,52,0.00,,,0.00,,2013-05-06 19:01:00,
2013-05-06 15:11:00,80.0,61.0,29.93,South,186,4.0,6.0,52,0.00,,,0.00,,2013-05-06 19:11:00,
2013-05-06 15:22:00,80.0,62.0,29.93,SSE,158,4.0,4.0,54,0.00,,,0.00,,2013-05-06 19:22:00,
2013-05-06 15:32:00,79.0,61.0,29.93,ESE,105,5.0,5.0,55,0.00,,,0.00,,2013-05-06 19:32:00,
2013-05-06 15:41:00,79.0,61.0,29.93,ESE,105,5.0,5.0,55,0.00,,,0.00,,2013-05-06 19:41:00,
2013-05-06 15:52:00,80.0,61.0,29.93,SSE,160,5.0,5.0,52,0.00,,,0.00,,2013-05-06 19:52:00,
2013-05-06 16:02:00,79.0,60.0,29.92,SE,129,3.0,4.0,53,0.00,,,0.00,,2013-05-06 20:02:00,
2013-05-06 16:11:00,79.0,60.0,29.92,SE,129,3.0,4.0,53,0.00,,,0.00,,2013-05-06 20:11:00,
2013-05-06 16:21:00,79.0,61.0,29.92,South,170,5.0,5.0,55,0.00,,,0.00,,2013-05-06 20:21:00,
2013-05-06 16:32:00,78.0,61.0,29.92,SE,128,5.0,5.0,55,0.00,,,0.00,,2013-05-06 20:32:00,
2013-05-06 16:42:00,78.0,61.0,29.92,SE,128,5.0,5.0,55,0.00,,,0.00,,2013-05-06 20:42:00,
2013-05-06 16:52:00,78.0,61.0,29.92,SSW,195,5.0,5.0,55,0.00,,,0.00,,2013-05-06 20:52:00,
2013-05-06 17:01:00,79.0,60.0,29.92,South,188,4.0,9.0,53,0.00,,,0.00,,2013-05-06 21:01:00,
2013-05-06 17:11:00,79.0,60.0,29.92,South,188,4.0,9.0,53,0.00,,,0.00,,2013-05-06 21:11:00,
2013-05-06 17:21:00,79.0,61.0,29.91,SE,136,4.0,5.0,54,0.00,,,0.00,,2013-05-06 21:21:00,
2013-05-06 17:33:00,78.0,60.0,29.91,SSW,205,4.0,4.0,54,0.00,,,0.00,,2013-05-06 21:33:00,
2013-05-06 17:43:00,78.0,60.0,29.91,SSW,205,4.0,4.0,54,0.00,,,0.00,,2013-05-06 21:43:00,
2013-05-06 17:53:00,78.0,60.0,29.91,SE,143,3.0,3.0,54,0.00,,,0.00,,2013-05-06 21:53:00,
2013-05-06 18:03:00,78.0,61.0,29.91,ESE,111,4.0,4.0,55,0.00,,,0.00,,2013-05-06 22:03:00,
2013-05-06 18:12:00,78.0,61.0,29.91,ESE,111,4.0,4.0,55,0.00,,,0.00,,2013-05-06 22:12:00,
2013-05-06 18:22:00,77.0,60.0,29.91,South,174,4.0,6.0,55,0.00,,,0.00,,2013-05-06 22:22:00,
2013-05-06 18:33:00,77.0,60.0,29.91,SSW,194,3.0,7.0,56,0.00,,,0.00,,2013-05-06 22:33:00,
2013-05-06 18:45:00,77.0,60.0,29.91,SSW,194,3.0,7.0,56,0.00,,,0.00,,2013-05-06 22:45:00,
2013-05-06 18:52:00,74.0,65.0,29.92,SW,228,4.0,4.0,74,0.00,,,0.00,,2013-05-06 22:52:00,
2013-05-06 19:03:00,72.0,66.0,29.91,ENE,69,0.0,0.0,81,0.00,,,0.00,,2013-05-06 23:03:00,
2013-05-06 19:12:00,72.0,66.0,29.91,ENE,69,0.0,0.0,81,0.00,,,0.00,,2013-05-06 23:12:00,
2013-05-06 19:22:00,71.0,66.0,29.91,SE,127,0.0,0.0,84,0.20,,,0.00,,2013-05-06 23:22:00,
2013-05-06 19:32:00,72.0,67.0,29.91,East,101,0.0,0.0,83,0.20,,,0.00,,2013-05-06 23:32:00,
2013-05-06 19:42:00,72.0,67.0,29.91,East,101,0.0,0.0,83,0.20,,,0.00,,2013-05-06 23:42:00,
2013-05-06 19:52:00,72.0,65.0,29.92,ESE,122,1.0,0.0,79,0.20,,,0.00,,2013-05-06 23:52:00,
2013-05-06 20:01:00,73.0,65.0,29.92,East,96,0.0,0.0,75,0.20,,,0.00,,2013-05-07 00:01:00,
2013-05-06 20:11:00,73.0,65.0,29.92,East,96,0.0,0.0,75,0.20,,,0.00,,2013-05-07 00:11:00,
2013-05-06 20:21:00,73.0,65.0,29.93,SE,129,0.0,0.0,76,0.00,,,0.00,,2013-05-07 00:21:00,
2013-05-06 20:32:00,73.0,65.0,29.93,SSE,158,0.0,0.0,77,0.00,,,0.00,,2013-05-07 00:32:00,
2013-05-06 20:42:00,73.0,65.0,29.93,SSE,158,0.0,0.0,77,0.00,,,0.00,,2013-05-07 00:42:00,
2013-05-06 20:52:00,73.0,65.0,29.93,South,180,0.0,0.0,76,0.00,,,0.00,,2013-05-07 00:52:00,
2013-05-06 21:01:00,73.0,65.0,29.94,SSW,193,0.0,0.0,77,0.00,,,0.00,,2013-05-07 01:01:00,
2013-05-06 21:11:00,73.0,65.0,29.94,SSW,193,0.0,0.0,77,0.00,,,0.00,,2013-05-07 01:11:00,
2013-05-06 21:21:00,72.0,66.0,29.94,SSW,193,0.0,0.0,81,0.00,,,0.00,,2013-05-07 01:21:00,
2013-05-06 21:32:00,71.0,66.0,29.95,SSW,193,0.0,0.0,84,0.00,,,0.00,,2013-05-07 01:32:00,
2013-05-06 21:42:00,71.0,66.0,29.95,SSW,193,0.0,0.0,84,0.00,,,0.00,,2013-05-07 01:42:00,
2013-05-06 21:53:00,70.0,66.0,29.95,North,357,1.0,1.0,86,0.00,,,0.00,,2013-05-07 01:53:00,
2013-05-06 22:02:00,71.0,66.0,29.95,North,359,0.0,0.0,85,0.00,,,0.00,,2013-05-07 02:02:00,
2013-05-06 22:11:00,71.0,66.0,29.95,North,359,0.0,0.0,85,0.00,,,0.00,,2013-05-07 02:11:00,
2013-05-06 22:22:00,71.0,66.0,29.96,North,359,0.0,0.0,84,0.00,,,0.00,,2013-05-07 02:22:00,
2013-05-06 22:32:00,71.0,66.0,29.96,North,359,0.0,0.0,83,0.00,,,0.00,,2013-05-07 02:32:00,
2013-05-06 22:42:00,71.0,66.0,29.96,North,359,0.0,0.0,83,0.00,,,0.00,,2013-05-07 02:42:00,
2013-05-06 22:52:00,71.0,65.0,29.97,NW,322,1.0,1.0,82,0.00,,,0.00,,2013-05-07 02:52:00,
2013-05-06 23:01:00,71.0,64.0,29.97,NW,311,1.0,0.0,78,0.00,,,0.00,,2013-05-07 03:01:00,
2013-05-06 23:11:00,71.0,64.0,29.97,NW,311,1.0,0.0,78,0.00,,,0.00,,2013-05-07 03:11:00,
2013-05-06 23:22:00,72.0,64.0,29.97,North,3,1.0,0.0,77,0.00,,,0.00,,2013-05-07 03:22:00,
2013-05-06 23:32:00,71.0,63.0,29.98,NNW,329,1.0,0.0,77,0.00,,,0.00,,2013-05-07 03:32:00,
2013-05-06 23:42:00,71.0,63.0,29.98,NNW,329,1.0,0.0,77,0.00,,,0.00,,2013-05-07 03:42:00,
2013-05-06 23:53:00,71.0,64.0,29.97,NNW,329,0.0,0.0,78,0.00,,,0.00,,2013-05-07 03:53:00,